Weather History for Mammoth, CA

Change the Weather History Date:

Thursday, August 29, 2013

  Actual Average Record
Temperature  
Mean Temperature 62 °F -  
Max Temperature 82 °F 72 °F 87 °F (2014)
Min Temperature 42 °F 56 °F 37 °F (2012)
Degree Days  
Heating Degree Days 3    
Growing Degree Days 12 (Base 50)    
Moisture  
Dew Point 32 °F    
Average Humidity 37    
Maximum Humidity 70    
Minimum Humidity 12    
Precipitation  
Precipitation 0.00 in - - ()
Sea Level Pressure  
Sea Level Pressure 30.32 in    
Wind  
Wind Speed 5 mph (SW)    
Max Wind Speed 24 mph    
Max Gust Speed 32 mph    
Visibility 10 miles    
Events      
Averages and records for this station are not official NWS values.
T = Trace of Precipitation, MM = Missing Value Source: NWS Daily Summary

Daily Weather History Graph

Daily Weather History Graph

Search for Another Location

Airport:

Trip Planner

Search our weather history database for the weather conditions in past years. The results will help you decide how hot, cold, wet, or windy it might be!

Date:

Astronomy

Aug. 29, 2013 Rise Set
Actual Time 6:23 AM PDT 7:28 PM PDT
Civil Twilight 5:56 AM PDT 7:55 PM PDT
Nautical Twilight 5:24 AM PDT 8:27 PM PDT
Astronomical Twilight 4:50 AM PDT 9:00 PM PDT
Moon 12:21 AM PDT (8/29) 2:57 PM PDT (8/29)
Length of Visible Light 13h 58m
Length of Day
13h 05m
Last Quarter, 37% of the Moon is Illuminated
Aug 29
Last Quarter
Sep 5
New
Sep 12
First Quarter
Sep 19
Full
Sep 26
Last Quarter

Hourly Weather History & Observations

Time (PDT) Temp. Windchill Dew Point Humidity Pressure Visibility Wind Dir Wind Speed Gust Speed Precip Events Conditions
12:15 AM 48.2 °F - 35.6 °F 62% 30.28 in 10.0 mi Calm Calm - N/A   Clear
12:35 AM 50.0 °F - 35.6 °F 58% 30.28 in 10.0 mi Calm Calm - N/A   Clear
12:55 AM 44.6 °F - 32.0 °F 61% 30.28 in 10.0 mi Calm Calm - N/A   Clear
1:15 AM 46.4 °F - 33.8 °F 62% 30.28 in 10.0 mi Calm Calm - N/A   Clear
1:35 AM 44.6 °F 43.1 °F 33.8 °F 66% 30.28 in 10.0 mi North 3.5 mph - N/A   Clear
1:55 AM 46.4 °F 45.2 °F 35.6 °F 66% 30.28 in 10.0 mi NNE 3.5 mph - N/A   Clear
2:15 AM 48.2 °F - 33.8 °F 58% 30.28 in 10.0 mi NNW 4.6 mph - N/A   Clear
2:35 AM 42.8 °F 41.1 °F 33.8 °F 70% 30.28 in 10.0 mi NE 3.5 mph - N/A   Clear
2:55 AM 46.4 °F - 33.8 °F 62% 30.28 in 10.0 mi Calm Calm - N/A   Clear
3:15 AM 46.4 °F 44.3 °F 33.8 °F 62% 30.28 in 10.0 mi NE 4.6 mph - N/A   Clear
3:35 AM 44.6 °F - 33.8 °F 66% 30.28 in 10.0 mi Calm Calm - N/A   Clear
3:55 AM 44.6 °F - 33.8 °F 66% 30.28 in 10.0 mi Calm Calm - N/A   Clear
4:15 AM 42.8 °F 40.1 °F 32.0 °F 66% 30.28 in 10.0 mi WNW 4.6 mph - N/A   Clear
4:35 AM 44.6 °F 41.4 °F 33.8 °F 66% 30.28 in 10.0 mi ENE 5.8 mph - N/A   Clear
4:55 AM 46.4 °F - 33.8 °F 62% 30.28 in 10.0 mi Calm Calm - N/A   Clear
5:15 AM 44.6 °F 42.2 °F 32.0 °F 61% 30.29 in 10.0 mi NW 4.6 mph - N/A   Clear
5:35 AM 48.2 °F - 35.6 °F 62% 30.29 in 10.0 mi Calm Calm - N/A   Clear
5:55 AM 46.4 °F 45.2 °F 33.8 °F 62% 30.29 in 10.0 mi NW 3.5 mph - N/A   Clear
6:15 AM 44.6 °F - 33.8 °F 66% 30.30 in 10.0 mi Calm Calm - N/A   Clear
6:35 AM 42.8 °F - 33.8 °F 70% 30.31 in 10.0 mi Calm Calm - N/A   Clear
6:55 AM 42.8 °F 41.1 °F 33.8 °F 70% 30.31 in 10.0 mi NE 3.5 mph - N/A   Clear
7:15 AM 50.0 °F - 37.4 °F 62% 30.31 in 10.0 mi SSW 6.9 mph - N/A   Clear
7:35 AM 51.8 °F - 39.2 °F 62% 30.32 in 10.0 mi SSE 6.9 mph - N/A   Clear
7:55 AM 55.4 °F - 37.4 °F 51% 30.33 in 10.0 mi SE 6.9 mph - N/A   Clear
8:15 AM 59.0 °F - 37.4 °F 45% 30.33 in 10.0 mi East 4.6 mph - N/A   Clear
8:35 AM 66.2 °F - 35.6 °F 32% 30.33 in 10.0 mi Calm Calm - N/A   Clear
8:55 AM 68.0 °F - 33.8 °F 28% 30.33 in 10.0 mi SE 6.9 mph - N/A   Clear
9:15 AM 71.6 °F - 32.0 °F 23% 30.34 in 10.0 mi East 6.9 mph - N/A   Clear
9:35 AM 73.4 °F - 30.2 °F 20% 30.34 in 10.0 mi Calm Calm - N/A   Clear
10:15 AM 75.2 °F - 30.2 °F 19% 30.34 in 10.0 mi WSW 13.8 mph 21.9 mph N/A   Clear
10:55 AM 77.0 °F - 26.6 °F 16% 30.35 in 10.0 mi SSE 11.5 mph 25.3 mph N/A   Clear
11:15 AM 77.0 °F - 26.6 °F 16% 30.35 in 10.0 mi SSE 11.5 mph 18.4 mph N/A   Clear
11:35 AM 78.8 °F - 28.4 °F 16% 30.36 in 10.0 mi SW 8.1 mph 23.0 mph N/A   Clear
11:55 AM 78.8 °F - 28.4 °F 16% 30.35 in 10.0 mi SSE 15.0 mph 21.9 mph N/A   Clear
12:15 PM 78.8 °F - 28.4 °F 16% 30.35 in 10.0 mi SSW 6.9 mph 17.3 mph N/A   Clear
12:35 PM 80.6 °F - 26.6 °F 14% 30.34 in 10.0 mi SSE 16.1 mph 24.2 mph N/A   Clear
12:55 PM 78.8 °F - 26.6 °F 15% 30.34 in 10.0 mi Calm Calm - N/A   Clear
1:15 PM 78.8 °F - 26.6 °F 15% 30.34 in 10.0 mi WSW 10.4 mph 16.1 mph N/A   Clear
1:35 PM 82.4 °F - 26.6 °F 13% 30.34 in 10.0 mi South 8.1 mph - N/A   Clear
1:55 PM 82.4 °F - 28.4 °F 14% 30.34 in 10.0 mi West 5.8 mph 24.2 mph N/A   Clear
2:15 PM 82.4 °F - 26.6 °F 13% 30.33 in 10.0 mi SSE 13.8 mph 19.6 mph N/A   Clear
2:35 PM 80.6 °F - 26.6 °F 14% 30.33 in 10.0 mi SW 5.8 mph 20.7 mph N/A   Clear
2:55 PM 80.6 °F - 24.8 °F 13% 30.34 in 10.0 mi SW 12.7 mph 24.2 mph N/A   Clear
3:15 PM 82.4 °F - 26.6 °F 13% 30.33 in 10.0 mi West 6.9 mph - N/A   Clear
3:35 PM 82.4 °F - 24.8 °F 12% 30.33 in 10.0 mi SW 17.3 mph 24.2 mph N/A   Clear
3:55 PM 82.4 °F - 28.4 °F 14% 30.33 in 10.0 mi West 12.7 mph 32.2 mph N/A   Clear
4:15 PM 80.6 °F - 30.2 °F 16% 30.33 in 10.0 mi WNW 19.6 mph 26.5 mph N/A   Clear
4:35 PM 80.6 °F - 32.0 °F 17% 30.31 in 10.0 mi SSW 13.8 mph 25.3 mph N/A   Clear
4:55 PM 80.6 °F - 30.2 °F 16% 30.32 in 10.0 mi WNW 17.3 mph 28.8 mph N/A   Clear
5:15 PM 78.8 °F - 33.8 °F 20% 30.32 in 10.0 mi WNW 23.0 mph 29.9 mph N/A   Clear
5:35 PM 78.8 °F - 33.8 °F 20% 30.32 in 10.0 mi West 21.9 mph 27.6 mph N/A   Clear
5:55 PM 77.0 °F - 33.8 °F 21% 30.32 in 10.0 mi WNW 24.2 mph 29.9 mph N/A   Clear
6:15 PM 77.0 °F - 35.6 °F 22% 30.32 in 10.0 mi West 20.7 mph 27.6 mph N/A   Clear
6:35 PM 75.2 °F - 35.6 °F 24% 30.32 in 10.0 mi West 17.3 mph 21.9 mph N/A   Clear
6:55 PM 75.2 °F - 35.6 °F 24% 30.32 in 10.0 mi West 12.7 mph 24.2 mph N/A   Clear
7:15 PM 73.4 °F - 35.6 °F 25% 30.32 in 10.0 mi West 12.7 mph 20.7 mph N/A   Clear
7:35 PM 73.4 °F - 32.0 °F 22% 30.32 in 10.0 mi SW 12.7 mph 19.6 mph N/A   Clear
7:55 PM 71.6 °F - 33.8 °F 25% 30.32 in 10.0 mi SW 10.4 mph 24.2 mph N/A   Clear
8:15 PM 71.6 °F - 33.8 °F 25% 30.33 in 10.0 mi SW 13.8 mph 21.9 mph N/A   Clear
8:35 PM 71.6 °F - 33.8 °F 25% 30.35 in 10.0 mi SW 10.4 mph 17.3 mph N/A   Clear
8:55 PM 69.8 °F - 33.8 °F 27% 30.35 in 10.0 mi West 5.8 mph - N/A   Clear
9:15 PM 68.0 °F - 35.6 °F 30% 30.36 in 10.0 mi ESE 5.8 mph - N/A   Clear
9:35 PM 64.4 °F - 33.8 °F 32% 30.36 in 10.0 mi NE 4.6 mph - N/A   Clear
9:55 PM 64.4 °F - 35.6 °F 34% 30.37 in 10.0 mi Calm Calm - N/A   Clear
10:15 PM 62.6 °F - 35.6 °F 37% 30.37 in 10.0 mi South 4.6 mph - N/A   Clear
10:35 PM 64.4 °F - 35.6 °F 34% 30.38 in 10.0 mi South 3.5 mph - N/A   Clear
10:55 PM 62.6 °F - 33.8 °F 34% 30.38 in 10.0 mi Calm Calm - N/A   Clear
11:15 PM 60.8 °F - 33.8 °F 36% 30.38 in 10.0 mi Calm Calm - N/A   Clear
11:35 PM 59.0 °F - 35.6 °F 42% 30.38 in 10.0 mi West 3.5 mph - N/A   Clear
11:55 PM 59.0 °F - 35.6 °F 42% 30.38 in 10.0 mi Calm Calm - N/A   Clear